Weather History for Alexandria, MN

Change the Weather History Date:

Thursday, January 24, 2013

  Actual Average Record
Temperature  
Mean Temperature 0 °F -  
Max Temperature 10 °F 20 °F 58 °F (1981)
Min Temperature -11 °F 1 °F -32 °F (1952)
Degree Days  
Heating Degree Days 66    
Moisture  
Dew Point -11 °F    
Average Humidity 65    
Maximum Humidity 69    
Minimum Humidity 61    
Precipitation  
Precipitation 0.00 in - - ()
Sea Level Pressure  
Sea Level Pressure 30.49 in    
Wind  
Wind Speed 11 mph (SE)    
Max Wind Speed 20 mph    
Max Gust Speed 25 mph    
Visibility 10 miles    
Events      
Averages and records for this station are not official NWS values.
T = Trace of Precipitation, MM = Missing Value Source: NWS Daily Summary

Daily Weather History Graph

Daily Weather History Graph

Search for Another Location

Airport:

Trip Planner

Search our weather history database for the weather conditions in past years. The results will help you decide how hot, cold, wet, or windy it might be!

Date:

Astronomy

Jan. 24, 2013 Rise Set
Actual Time 7:51 AM CST 5:16 PM CST
Civil Twilight 7:19 AM CST 5:48 PM CST
Nautical Twilight 6:43 AM CST 6:25 PM CST
Astronomical Twilight 6:07 AM CST 7:00 PM CST
Moon 3:17 PM CST (1/24) 5:52 AM CST (1/24)
Length of Visible Light 10h 29m
Length of Day
9h 24m
Waxing Gibbous, 94% of the Moon is Illuminated
Jan 24
Waxing Gibbous
Jan 26
Full
Feb 3
Last Quarter
Feb 10
New
Feb 17
First Quarter

Hourly Weather History & Observations

Time (CST) Temp. Windchill Dew Point Humidity Pressure Visibility Wind Dir Wind Speed Gust Speed Precip Events Conditions
12:53 AM -11.9 °F -29.9 °F -20.9 °F 64% 30.68 in 10.0 mi NE 9.2 mph - N/A   Clear
1:53 AM -11.9 °F -27.3 °F -20.0 °F 67% 30.71 in 10.0 mi East 6.9 mph - N/A   Clear
2:53 AM -11.9 °F -27.3 °F -20.0 °F 67% 30.72 in 10.0 mi ENE 6.9 mph - N/A   Clear
3:53 AM -11.0 °F -22.8 °F -20.0 °F 64% 30.71 in 10.0 mi East 4.6 mph - N/A   Clear
4:53 AM -9.9 °F -24.9 °F -18.9 °F 65% 30.69 in 10.0 mi ESE 6.9 mph - N/A   Partly Cloudy
5:53 AM -9.9 °F -26.3 °F -18.9 °F 65% 30.70 in 10.0 mi SE 8.1 mph - N/A   Mostly Cloudy
6:53 AM -9.0 °F -26.4 °F -18.0 °F 65% 30.71 in 10.0 mi SE 9.2 mph - N/A   Overcast
7:53 AM -9.0 °F -25.2 °F -18.0 °F 65% 30.68 in 10.0 mi SE 8.1 mph - N/A   Overcast
8:53 AM -8.0 °F -28.0 °F -17.0 °F 65% 30.63 in 10.0 mi SE 12.7 mph - N/A   Clear
9:53 AM -7.1 °F -25.9 °F -16.1 °F 65% 30.62 in 10.0 mi SE 11.5 mph - N/A   Clear
10:53 AM -6.0 °F -26.3 °F -15.0 °F 65% 30.62 in 10.0 mi SE 13.8 mph - N/A   Overcast
11:53 AM -4.0 °F -23.7 °F -13.0 °F 65% 30.57 in 10.0 mi SE 13.8 mph - N/A   Mostly Cloudy
12:53 PM -2.9 °F -23.8 °F -11.9 °F 65% 30.53 in 10.0 mi SE 16.1 mph - N/A   Partly Cloudy
1:53 PM -2.0 °F -21.9 °F -11.0 °F 66% 30.47 in 10.0 mi SE 15.0 mph - N/A   Partly Cloudy
2:53 PM -0.0 °F -20.1 °F -9.0 °F 66% 30.43 in 10.0 mi SE 16.1 mph - N/A   Overcast
3:53 PM 1.0 °F -19.3 °F -7.1 °F 69% 30.38 in 10.0 mi SE 17.3 mph 25.3 mph N/A   Scattered Clouds
4:53 PM 1.9 °F -17.5 °F -6.0 °F 69% 30.34 in 10.0 mi SE 16.1 mph - N/A   Overcast
5:53 PM 3.9 °F -15.6 °F -5.1 °F 66% 30.30 in 10.0 mi SE 17.3 mph 25.3 mph N/A   Overcast
6:53 PM 5.0 °F -13.6 °F -4.0 °F 66% 30.27 in 10.0 mi SSE 16.1 mph - N/A   Scattered Clouds
7:53 PM 7.0 °F -11.6 °F -2.9 °F 64% 30.21 in 10.0 mi SSE 17.3 mph - N/A   Mostly Cloudy
8:53 PM 9.0 °F -5.9 °F -2.0 °F 61% 30.23 in 10.0 mi South 11.5 mph - N/A   Overcast
9:53 PM 9.0 °F -10.0 °F -2.0 °F 61% 30.20 in 10.0 mi South 19.6 mph - N/A   Overcast
10:53 PM 10.0 °F -8.6 °F -0.0 °F 64% 30.16 in 10.0 mi South 19.6 mph 24.2 mph N/A   Overcast
11:53 PM 10.9 °F -4.1 °F 1.0 °F 64% 30.14 in 10.0 mi South 12.7 mph - N/A   Overcast